カタログに戻る

FENGYUN 1C DEB

運用中PO
NORAD 31287·DEBRIS·🇨🇳 China

打ち上げ May 10, 1999 から Taiyuan Satellite Launch Center

Loading…

次のパス (今後24時間)

TLE

最新Source: Space-Track

元期: Sep 12, 2026, 04:12 UTC

1 31287U 99025BNV 26255.17555808  .00001885  00000-0  75046-3 0  9992
2 31287  99.3909 337.2126 0026023 359.9555   0.1618 14.29791702  5878

AllMySatでFENGYUN 1C DEBをリアルタイム追跡

Download on the App Store